Terminal Aerodrome Forecast
Issued by NWS

Home | Current Version | Previous Version | Text Only | Print | Product List | Glossary On
Versions: 1 2 3 4 5 6 7 8 9 10 11 12 13 14 15
000
FTUS43 KSGF 291700
TAFJLN
TAF
KJLN 291720Z 2918/3018 21010KT P6SM SCT030 BKN100
     FM300000 18008KT P6SM BKN150
     FM301000 20006KT P6SM SCT040 BKN100=

USA.gov is the U.S. government's official web portal to all federal, state and local government web resources and services.